Tracking 29892 objects as of 21-Nov-2024
HD Live streaming from Space Station
objects crossing your sky now

COSMOS 1275 DEB

Track COSMOS 1275 DEB now!
10-day predictions


NORAD ID: 42200
Int'l Code: 1981-053TQ
Perigee: 828.7 km
Apogee: 934.5 km
Inclination: 83.0 °
Period: 102.4 minutes
Semi major axis: 7252 km
RCS: Unknown
Launch date: June 4, 1981
Source: Commonwealth of Independent States (former USSR) (CIS)
Launch site: PLESETSK MISSILE AND SPACE COMPLEX (PKMTR)

Note: This is SATELLITE DEBRIS
Your satellite tracking list
Your tracking list is empty




NASA's NSSDC Master Catalog

Two Line Element Set (TLE):
1 42200U 81053TQ  24324.46134917  .00004003  00000-0  23926-2 0  9996
2 42200  82.9816 217.4812 0072932  52.3651 308.4111 14.05603408560868
Source of the keplerian elements: AFSPC